Weather History for KLAM - March, 2014

Change the Weather History Date:

Monday, March 10, 2014

  Actual Average Record
Temperature  
Mean Temperature 49 °F -  
Max Temperature 63 °F 48 °F 71 °F (1989)
Min Temperature 35 °F 27 °F 9 °F (1958)
Degree Days  
Heating Degree Days 16    
Moisture  
Dew Point 1 °F    
Average Humidity 18    
Maximum Humidity 37    
Minimum Humidity 4    
Precipitation  
Precipitation 0.00 in - - ()
Sea Level Pressure  
Sea Level Pressure 30.12 in    
Wind  
Wind Speed 3 mph (SSW)    
Max Wind Speed 17 mph    
Max Gust Speed -    
Visibility 10 miles    
Events      
Averages and records for this station are not official NWS values.
T = Trace of Precipitation, MM = Missing Value Source: NWS Daily Summary

Daily Weather History Graph

Daily Weather History Graph

Search for Another Location

Airport or City:

Trip Planner

Search our weather history database for the weather conditions in past years. The results will help you decide how hot, cold, wet, or windy it might be!

Date:

Astronomy

Mar. 10, 2014 Rise Set
Actual Time 7:22 AM MDT 7:08 PM MDT
Civil Twilight 6:57 AM MDT 7:33 PM MDT
Nautical Twilight 6:27 AM MDT 8:03 PM MDT
Astronomical Twilight 5:57 AM MDT 8:33 PM MDT
Moon 2:01 PM MDT (3/10) 3:28 AM MDT (3/10)
Length of Visible Light 12h 36m
Length of Day
11h 45m
Waxing Gibbous, 70% of the Moon is Illuminated
Mar 10
Waxing Gibbous
Mar 16
Full
Mar 23
Last Quarter
Mar 30
New
Apr 7
First Quarter

Hourly Weather History & Observations

Time (MDT) Temp. Windchill Dew Point Humidity Pressure Visibility Wind Dir Wind Speed Gust Speed Precip Events Conditions
12:15 AM 45.5 °F 44.2 °F 11.8 °F 26% 30.27 in 10.0 mi NW 3.5 mph - N/A   Clear
12:35 AM 45.7 °F - 11.1 °F 25% 30.27 in 10.0 mi Calm Calm - N/A   Clear
12:55 AM 44.8 °F - 9.9 °F 24% 30.27 in 10.0 mi Calm Calm - N/A   Clear
1:15 AM 45.9 °F - 8.6 °F 22% 30.26 in 10.0 mi Calm Calm - N/A   Clear
1:35 AM 45.3 °F - 9.1 °F 23% 30.27 in 10.0 mi Calm Calm - N/A   Clear
1:55 AM 44.6 °F - 9.3 °F 24% 30.27 in 10.0 mi Calm Calm - N/A   Clear
2:15 AM 44.1 °F - 9.5 °F 24% 30.26 in 10.0 mi Calm Calm - N/A   Clear
2:35 AM 43.9 °F - 9.3 °F 24% 30.25 in 10.0 mi Calm Calm - N/A   Clear
2:55 AM 43.0 °F - 9.5 °F 25% 30.25 in 10.0 mi Calm Calm - N/A   Clear
3:15 AM 41.4 °F - 11.1 °F 29% 30.23 in 10.0 mi Calm Calm - N/A   Clear
3:35 AM 41.0 °F - 11.3 °F 30% 30.23 in 10.0 mi Calm Calm - N/A   Clear
3:55 AM 41.0 °F - 12.2 °F 31% 30.23 in 10.0 mi Calm Calm - N/A   Clear
4:15 AM 41.9 °F - 12.0 °F 30% 30.22 in 10.0 mi Calm Calm - N/A   Clear
4:35 AM 41.0 °F 38.0 °F 11.3 °F 30% 30.21 in 10.0 mi North 4.6 mph - N/A   Clear
4:55 AM 40.5 °F - 12.0 °F 31% 30.21 in 10.0 mi Calm Calm - N/A   Clear
5:15 AM 39.4 °F 37.2 °F 11.3 °F 32% 30.21 in 10.0 mi North 3.5 mph - N/A   Clear
5:35 AM 37.6 °F 35.1 °F 12.2 °F 35% 30.20 in 10.0 mi North 3.5 mph - N/A   Clear
5:55 AM 37.6 °F 34.0 °F 10.9 °F 33% 30.20 in 10.0 mi North 4.6 mph - N/A   Clear
6:15 AM 37.6 °F 34.0 °F 9.3 °F 31% 30.20 in 10.0 mi North 4.6 mph - N/A   Clear
6:35 AM 38.1 °F 35.7 °F 8.1 °F 29% 30.19 in 10.0 mi North 3.5 mph - N/A   Clear
6:55 AM 35.6 °F - 11.3 °F 37% 30.19 in 10.0 mi Calm Calm - N/A   Clear
7:15 AM 36.0 °F - 10.9 °F 36% 30.19 in 10.0 mi Calm Calm - N/A   Clear
7:35 AM 36.5 °F 33.9 °F 9.9 °F 33% 30.19 in 10.0 mi SSE 3.5 mph - N/A   Clear
7:55 AM 37.6 °F - 8.6 °F 30% 30.19 in 10.0 mi Calm Calm - N/A   Clear
8:15 AM 39.0 °F - 8.1 °F 28% 30.19 in 10.0 mi Calm Calm - N/A   Clear
8:35 AM 40.6 °F - 9.7 °F 28% 30.19 in 10.0 mi Calm Calm - N/A   Clear
8:55 AM 40.1 °F - 12.7 °F 33% 30.19 in 10.0 mi Calm Calm - N/A   Clear
9:15 AM 41.0 °F - 11.5 °F 30% 30.19 in 10.0 mi Calm Calm - N/A   Clear
9:35 AM 43.7 °F - 10.8 °F 26% 30.19 in 10.0 mi Calm Calm - N/A   Clear
9:55 AM 45.1 °F - 11.3 °F 25% 30.19 in 10.0 mi Calm Calm - N/A   Clear
10:15 AM 46.2 °F - 11.3 °F 24% 30.18 in 10.0 mi Calm Calm - N/A   Clear
10:35 AM 48.0 °F - 12.2 °F 24% 30.18 in 10.0 mi Calm Calm - N/A   Clear
10:55 AM 49.1 °F - 12.4 °F 23% 30.18 in 10.0 mi Calm Calm - N/A   Clear
11:15 AM 50.0 °F - 11.7 °F 21% 30.17 in 10.0 mi Calm Calm - N/A   Clear
11:35 AM 51.6 °F - 11.8 °F 20% 30.17 in 10.0 mi Calm Calm - N/A   Clear
11:55 AM 54.0 °F - 10.8 °F 18% 30.16 in 10.0 mi Calm Calm - N/A   Clear
12:15 PM 54.9 °F - 11.3 °F 18% 30.15 in 10.0 mi ENE 3.5 mph - N/A   Clear
12:35 PM 55.8 °F - 7.2 °F 14% 30.14 in 10.0 mi Calm Calm - N/A   Clear
12:55 PM 57.4 °F - 9.3 °F 15% 30.13 in 10.0 mi ENE 4.6 mph - N/A   Clear
1:15 PM 58.3 °F - 8.4 °F 14% 30.12 in 10.0 mi East 4.6 mph - N/A   Clear
1:35 PM 59.0 °F - 6.1 °F 12% 30.11 in 10.0 mi ESE 4.6 mph - N/A   Clear
1:55 PM 60.1 °F - 7.0 °F 12% 30.09 in 10.0 mi SSE 5.8 mph - N/A   Clear
2:15 PM 60.3 °F - 9.5 °F 13% 30.08 in 10.0 mi SE 9.2 mph - N/A   Clear
2:35 PM 60.4 °F - 9.7 °F 13% 30.07 in 10.0 mi SSE 8.1 mph - N/A   Clear
2:55 PM 61.3 °F - 9.3 °F 13% 30.05 in 10.0 mi SE 6.9 mph - N/A   Clear
3:15 PM 61.0 °F - 7.7 °F 12% 30.04 in 10.0 mi South 8.1 mph - N/A   Clear
3:35 PM 61.7 °F - 3.9 °F 10% 30.04 in 10.0 mi SSE 6.9 mph - N/A   Clear
3:55 PM 63.0 °F - 1.0 °F 8% 30.03 in 10.0 mi East 6.9 mph - N/A   Clear
4:15 PM 63.1 °F - 1.9 °F 9% 30.03 in 10.0 mi SSE 10.4 mph - N/A   Clear
4:35 PM 63.5 °F - 3.6 °F 9% 30.02 in 10.0 mi SSE 6.9 mph - N/A   Clear
4:55 PM 63.1 °F - 3.0 °F 9% 30.02 in 10.0 mi SE 5.8 mph - N/A   Clear
5:15 PM 62.8 °F - 1.8 °F 9% 30.01 in 10.0 mi ESE 4.6 mph - N/A   Clear
5:35 PM 63.1 °F - 0.3 °F 8% 30.01 in 10.0 mi Calm Calm - N/A   Clear
5:55 PM 63.1 °F - -0.4 °F 8% 30.01 in 10.0 mi Calm Calm - N/A   Clear
6:15 PM 63.0 °F - -39.1 °F 4% 30.01 in 10.0 mi West 17.3 mph - N/A   Clear
6:35 PM 61.5 °F - -32.3 °F 4% 30.01 in 10.0 mi WSW 10.4 mph - N/A   Clear
6:55 PM 60.8 °F - -39.1 °F 4% 30.01 in 10.0 mi West 12.7 mph - N/A   Clear
7:15 PM 59.9 °F - -36.0 °F 4% 30.01 in 10.0 mi WSW 9.2 mph - N/A   Clear
7:35 PM 58.1 °F - -30.6 °F 4% 30.01 in 10.0 mi WSW 9.2 mph - N/A   Clear
7:55 PM 57.6 °F - -31.0 °F 4% 30.01 in 10.0 mi WSW 8.1 mph - N/A   Clear
8:15 PM 56.5 °F - -27.8 °F 4% 30.01 in 10.0 mi West 8.1 mph - N/A   Clear
8:35 PM 55.9 °F - -24.3 °F 4% 30.01 in 10.0 mi WSW 8.1 mph - N/A   Clear
8:55 PM 56.1 °F - -21.1 °F 4% 30.00 in 10.0 mi WSW 10.4 mph - N/A   Clear
9:15 PM 55.2 °F - -17.3 °F 5% 30.00 in 10.0 mi WSW 12.7 mph - N/A   Clear
9:35 PM 54.5 °F - -16.4 °F 5% 29.99 in 10.0 mi West 9.2 mph - N/A   Clear
9:55 PM 54.3 °F - -15.3 °F 5% 29.99 in 10.0 mi WSW 10.4 mph - N/A   Clear
10:15 PM 55.0 °F - -13.0 °F 6% 29.99 in 10.0 mi SW 10.4 mph - N/A   Clear
10:35 PM 55.4 °F - -11.2 °F 6% 29.99 in 10.0 mi SW 8.1 mph - N/A   Clear
10:55 PM 55.0 °F - -10.3 °F 7% 29.98 in 10.0 mi South 4.6 mph - N/A   Clear
11:15 PM 54.3 °F - -8.5 °F 7% 29.98 in 10.0 mi SW 10.4 mph - N/A   Clear
11:35 PM 52.9 °F - -6.2 °F 9% 29.99 in 10.0 mi Calm Calm - N/A   Clear
11:55 PM 51.6 °F - -4.5 °F 10% 29.98 in 10.0 mi North 4.6 mph - N/A   Clear